Regional Weather Roundup
Issued by NWS Cleveland, OH

Home | Current Version | Previous Version | Text Only | Print | Product List | Glossary Off
Versions: 1 2 3 4 5 6 7 8 9 10 11 12 13 14 15 16 17 18 19 20 21 22 23 24 25 26 27 28 29 30 31 32 33 34 35 36 37 38 39 40 41 42 43 44 45 46 47 48 49 50

341
ASUS41 KCLE 211302
RWRCLE
OHIO REGIONAL WEATHER ROUNDUP
NATIONAL WEATHER SERVICE CLEVELAND, OH
800 AM EST TUE FEB 21 2017

NOTE: "FAIR" INDICATES FEW OR NO CLOUDS BELOW 12,000 FEET WITH NO
SIGNIFICANT WEATHER AND/OR OBSTRUCTIONS TO VISIBILITY.

OHZ001>008-015>018-024>027-034-035-043-044-211400-
   NORTHWEST OHIO

CITY           SKY/WX    TMP DP  RH WIND       PRES   REMARKS
DEFIANCE       CLOUDY    40  36  86 CALM      29.98S
FINDLAY        PTCLDY    50  39  66 S6        29.98S
TOLEDO EXPRESS CLOUDY    39  36  89 CALM      29.99R
TOLEDO EXEC    CLOUDY    40  37  89 CALM      30.00R
LIMA           PTCLDY    51  41  68 S10       29.99F
$$

OHZ009>014-019>023-028>033-038-089-211400-
   NORTHEAST OHIO

CITY           SKY/WX    TMP DP  RH WIND       PRES   REMARKS
CLE-HOPKINS    CLOUDY    50  33  52 S7        30.04R
CLE-LAKEFRONT  PTCLDY    52  32  46 SE20G25   30.00R
CUY CO. ARPT   CLOUDY    52  34  50 S14       30.03R
LORAIN-ELYRIA  CLOUDY    47  35  63 S9        30.01S
ASHTABULA      CLOUDY    47  32  56 S13       30.05S
AKRON-CANTON   MOCLDY    49  34  56 S9        30.05R
WOOSTER        CLOUDY    44  36  73 SE5       30.04R
MANSFIELD      PTCLDY    50  37  61 S7        30.02R
YOUNGSTOWN     CLOUDY    47  31  53 SE9       30.06S
$$

OHZ042-051>053-060>062-070>072-077>081-211400-
  SOUTHWEST OHIO

CITY           SKY/WX    TMP DP  RH WIND       PRES   REMARKS
CINC-COVINGTON CLOUDY    51  42  71 S7        30.03R
CINC-LUNKEN    CLOUDY    42  41  96 CALM      30.05R
HAMILTON       CLOUDY    44  41  89 E3        30.04R
DAYTON         CLOUDY    52  39  61 S7        30.02R
WRIGHT-PAT AFB CLOUDY    48  43  84 SE5       30.01S
DAYTON GENERAL CLOUDY    51  41  68 S9        30.02R
WILMINGTON     PTCLDY    50  41  71 S5        30.03R
$$

OHZ036-037-039>041-045>050-054>059-063>069-073>076-082>088-211400-
  CENTRAL AND SOUTHEAST OHIO

CITY           SKY/WX    TMP DP  RH WIND       PRES   REMARKS
COLUMBUS       CLOUDY    50  38  63 SE3       30.03S
OSU AIRPORT    CLOUDY    48  40  73 S5        30.03R
BOLTON FIELD   CLEAR     46  39  76 S6        30.03S
RICKENBACK AFB CLOUDY    41  40  94 S3        30.03S
NEWARK         PTCLDY    41  38  89 CALM      30.04R
MARION         PTCLDY    48  37  65 S8        30.02R
LANCASTER      PTCLDY    48  40  73 S5        30.04R
ZANESVILLE     PTCLDY    46  37  71 SW5       30.06R
NEW PHILLY     NOT AVBL
$$




USA.gov is the U.S. government's official web portal to all federal, state and local government web resources and services.